Location: Huppendorf
(49.9333°N, 11.1500°E)
Time: 04:57:16
(UTC+00:00)

STARLINK-1048 - Pass Details

Date: 27 February 2020
Orbit: 549 x 550 km, 53.0° (Epoch: 09 April)

Event Time Altitude Azimuth Distance (km) Brightness Sun altitude
Rises 18:49:41 0° 284° (WNW) 2,724 8.8 -19.4°
Reaches altitude 10° 18:51:57 10° 288° (WNW) 1,830 7.5 -19.8°
Maximum altitude 18:56:04 59° 9° (N) 638 3.8 -20.4°
Enters shadow 18:56:44 51° 51° (NE) 698 3.8 -20.5°
